TimeMST,TemperatureF,Dew PointF,Humidity,Sea Level PressureIn,VisibilityMPH,Wind Direction,Wind SpeedMPH,Gust SpeedMPH,PrecipitationIn,Events,Conditions,WindDirDegrees,DateUTC
12:54 AM,39.0,33.1,79,30.06,10.0,WSW,5.8,-,N/A,,Clear,240,2012-12-01 07:54:00
2:54 AM,35.1,32.0,89,30.09,10.0,SW,4.6,-,N/A,,Clear,230,2012-12-01 09:54:00
3:54 AM,28.0,25.0,88,30.14,9.0,NE,3.5,-,N/A,,Clear,50,2012-12-01 10:54:00
6:54 AM,21.9,19.0,89,30.19,10.0,Calm,Calm,-,N/A,,Clear,0,2012-12-01 13:54:00
7:54 AM,24.1,19.9,84,30.20,10.0,Calm,Calm,-,N/A,,Clear,0,2012-12-01 14:54:00
8:54 AM,34.0,28.9,82,30.16,10.0,Calm,Calm,-,N/A,,Clear,0,2012-12-01 15:54:00
9:54 AM,48.0,34.0,58,30.13,10.0,SW,6.9,-,N/A,,Clear,230,2012-12-01 16:54:00
10:54 AM,50.0,30.9,48,30.12,10.0,SSW,11.5,-,N/A,,Clear,210,2012-12-01 17:54:00
11:54 AM,52.0,32.0,47,30.10,10.0,SW,11.5,19.6,N/A,,Clear,230,2012-12-01 18:54:00
12:54 PM,53.1,32.0,45,30.07,10.0,WSW,15.0,25.3,N/A,,Clear,250,2012-12-01 19:54:00
1:54 PM,53.1,33.1,47,30.07,10.0,WSW,13.8,18.4,N/A,,Partly Cloudy,240,2012-12-01 20:54:00
2:54 PM,54.0,33.1,45,30.06,10.0,SW,15.0,-,N/A,,Mostly Cloudy,220,2012-12-01 21:54:00
3:54 PM,53.1,33.1,47,30.09,10.0,SW,12.7,-,N/A,,Clear,220,2012-12-01 22:54:00
4:54 PM,50.0,32.0,50,30.12,10.0,SW,8.1,-,N/A,,Clear,220,2012-12-01 23:54:00
5:54 PM,45.0,30.9,58,30.15,10.0,Calm,Calm,-,N/A,,Scattered Clouds,0,2012-12-02 00:54:00
6:54 PM,37.0,27.0,67,30.19,10.0,Calm,Calm,-,N/A,,Partly Cloudy,0,2012-12-02 01:54:00
7:54 PM,33.1,26.1,75,30.20,10.0,Calm,Calm,-,N/A,,Clear,0,2012-12-02 02:54:00
8:54 PM,30.0,23.0,75,30.19,10.0,NE,4.6,-,N/A,,Clear,50,2012-12-02 03:54:00
9:54 PM,27.0,21.9,81,30.14,10.0,Calm,Calm,-,N/A,,Clear,0,2012-12-02 04:54:00
10:54 PM,25.0,19.9,81,30.14,10.0,Calm,Calm,-,N/A,,Clear,0,2012-12-02 05:54:00
11:54 PM,25.0,19.9,81,30.13,10.0,Calm,Calm,-,N/A,,Clear,0,2012-12-02 06:54:00